Flag for Australia Weather past 2 weeks in Sydney, New South Wales, Australia

Now
66 °F

Clear.


Feels Like: 66 °F
Forecast: 51 / 63 °F
Wind: 16 mph from North

Location: Sydney Airport

Current Time: Jul 31, 2014 at 11:29:14 PM

Latest Report: Jul 31, 2014 at 10:30 PM


Visibility: 10 mi

Pressure: 29.71 "Hg

Humidity: 21%

Dew point: 25 °F

Location of SydneyLocation

Historic Weather in Sydney — Graph

°F

Sydney temperature yesterday

Maximum temperature yesterday: 77 °F (at 1:30 PM)
Minimum temperature yesterday: 54 °F (at 5:30 AM)
Average temperature yesterday: 65 °F

Past Weeks' High & Low Weather Summary

 TemperatureHumidityPressure
High77 °F (Jul 30, 1:30 PM)94% (Jul 23, 2:30 AM)30.30 "Hg (Jul 23, 2:30 AM)
Low46 °F (Jul 19, 2:30 AM)14% (Jul 31, 4:30 PM)29.71 "Hg (Jul 31, 3:00 PM)
Average58 °F58%30.09 "Hg
* Reported Jul 16 10:00 PM — Jul 31 10:00 PM, Sydney, Weather by CustomWeather, © 2014

Note: Actual official high and low records may vary slightly from our data, if they occured in-between our weather recording intervals... More about our weather records

Advertising

Sydney weather history for previous 24 hours

 ConditionsComfort  
Time TempWeatherWind HumidityBarometerVisibility
10:00 PM
Jul 31
66 °FClear.16 mph19%29.71 "Hg10 mi
9:30 PM68 °FClear.15 mph20%29.71 "Hg10 mi
9:00 PM68 °FClear.17 mph21%29.71 "Hg10 mi
8:30 PM68 °FClear.17 mph20%29.71 "Hg10 mi
8:00 PM70 °FClear.18 mph17%29.71 "Hg10 mi
7:30 PM70 °FClear.20 mph16%29.71 "Hg10 mi
7:00 PM72 °FClear.18 mph15%29.71 "Hg10 mi
6:30 PM72 °FClear.20 mph16%29.71 "Hg10 mi
6:00 PM73 °FClear.18 mph15%29.71 "Hg10 mi
5:30 PM73 °FClear.23 mph15%29.71 "Hg10 mi
5:00 PM75 °FClear.25 mph14%29.71 "Hg10 mi
4:30 PM75 °FClear.22 mph14%29.71 "Hg10 mi
4:00 PM77 °FSunny.24 mph15%29.71 "Hg10 mi
3:30 PM77 °FSunny.24 mph15%29.71 "Hg10 mi
3:00 PM77 °FSunny.24 mph15%29.71 "Hg10 mi
2:30 PM77 °FSunny.26 mph15%29.74 "Hg10 mi
2:00 PM77 °FSunny.26 mph17%29.74 "Hg10 mi
1:30 PM77 °FSunny.26 mph17%29.74 "Hg10 mi
1:00 PM77 °FSunny.22 mph17%29.77 "Hg10 mi
12:00 PM75 °FSunny.20 mph22%29.83 "Hg10 mi
11:30 AM73 °FSunny.22 mph22%29.86 "Hg10 mi
11:00 AM73 °FSunny.20 mph22%29.89 "Hg10 mi
10:30 AM72 °FSunny.20 mph25%29.89 "Hg10 mi
10:00 AM70 °FSunny.21 mph27%29.92 "Hg10 mi
9:30 AM68 °FSunny.17 mph28%29.92 "Hg10 mi
9:00 AM66 °FSunny.18 mph32%29.92 "Hg10 mi
8:30 AM64 °FSunny.14 mph40%29.95 "Hg10 mi
8:00 AM63 °FSunny.12 mph42%29.95 "Hg10 mi
7:30 AM61 °FSunny.13 mph45%29.95 "Hg10 mi
7:00 AM59 °FSunny.13 mph48%29.95 "Hg10 mi
6:30 AM57 °FSunny.10 mph55%29.95 "Hg10 mi
6:00 AM59 °FSunny.6 mph51%29.95 "Hg10 mi
5:30 AM57 °FClear.9 mph55%29.95 "Hg10 mi
5:00 AM57 °FClear.13 mph55%29.95 "Hg10 mi
4:30 AM59 °FClear.10 mph51%29.95 "Hg10 mi
3:30 AM57 °FClear.13 mph59%29.95 "Hg10 mi
3:00 AM57 °FClear.12 mph63%29.95 "Hg10 mi
2:30 AM57 °FClear.12 mph63%29.95 "Hg10 mi
2:00 AM59 °FClear.15 mph55%29.98 "Hg10 mi
1:00 AM59 °FClear.14 mph59%29.98 "Hg10 mi
12:30 AM61 °FClear.14 mph52%30.01 "Hg10 mi
12:00 AM61 °FClear.13 mph52%30.01 "Hg10 mi
11:30 PM
Jul 30
61 °FClear.10 mph52%30.01 "Hg10 mi
11:00 PM61 °FClear.10 mph52%30.01 "Hg10 mi
Weather by CustomWeather, © 2014

See weather overviewHow to use our weather pages